User: anonymous
Location: Vancouver
(49.2500°N, 123.1330°W)
Time: 23:32:20
(UTC-07:00)
Language:

AO-27 - Orbit

View from above orbital plane
View from above orbital plane
View from above satellite
View from above satellite

Ground track
Ground track

The orbit data is extracted from the following two-line orbital elements,

1 22825U 93061C   14212.83374545  .00000090  00000-0  52137-4 0  7277
2 22825 098.6641 158.6823 0008959 160.4859 225.9091 14.29732281 87161
Epoch (UTC): 31 July 2014 20:00:35
Eccentricity: 0.0008959
inclination: 98.6641°
perigee height: 786 km
apogee height: 799 km
right ascension of ascending node: 158.6823°
argument of perigee: 160.4859°
revolutions per day: 14.29732281
mean anomaly at epoch: 225.9091°
orbit number at epoch: 8716

The dashed part of the orbit path shows where the satellite is in the earth's shadow,  

DLR